Location: Unspecified
(0.0000°N, 0.0000°E)
Time: 00:57:18
(UTC+00:00)

Hubble Space Telescope - Pass Details

Date: 20 July 2019
Orbit: 536 x 540 km, 28.5° (Epoch: 17 November)

Event Time Altitude Azimuth Distance (km) Brightness Sun altitude
Exits shadow 05:04:13 22° 275° (W) 1,192 2.0 -14.5°
Maximum altitude 05:06:20 39° 330° (NNW) 810 1.6 -14.0°
Drops below altitude 10° 05:10:12 10° 40° (NE) 1,777 4.4 -13.1°
Sets 05:12:33 0° 48° (NE) 2,664 5.7 -12.6°
